"2009-04-20 00:00:00",815366,2.992,178.3,3.719,0.273,9.31,105.0636,12.24,13.26,32.25,0,110.5,13.26,13.03,140.3
"2009-04-20 00:00:30",815367,3.089,174.2,5.449,0.245,9.1,105.0656,12.24,13.26,32.33,0,110.5,13.26,13.04,136.2
"2009-04-20 00:01:00",815368,4.003,165.6,3.974,1.044,10.23,105.0661,12.24,13.29,32.54,0,110.5,13.22,13.04,127.6
"2009-04-20 00:01:30",815369,3.511,161.5,5.017,1.073,10.44,105.0658,12.24,13.37,32.38,0,110.5,13.22,13.04,123.5
"2009-04-20 00:02:00",815370,4.604,164.4,7.56,1.091,11.39,105.0664,12.24,13.31,32.39,0,110.5,13.22,13.04,126.4
"2009-04-20 00:02:30",815371,3.934,164.6,4.194,0.251,9.85,105.0673,12.24,13.27,32.73,0,110.5,13.26,13.04,126.6
"2009-04-20 00:03:00",815372,4.343,161.5,5.651,0.239,10.07,105.0709,12.25,13.27,33.37,0,110.5,13.26,13.05,123.5
"2009-04-20 00:03:30",815373,4.351,154,4.139,0.179,10.4,105.0695,12.25,13.27,33.48,0,110.5,13.26,13.05,116.0
"2009-04-20 00:04:00",815374,3.295,163.9,4.948,0.296,10.8,105.0691,12.25,13.29,32.72,0,110.5,13.27,13.04,125.9
"2009-04-20 00:04:30",815375,3.792,175.5,8.1,1.246,12.95,105.0707,12.25,13.42,32.4,0,110.5,13.23,13.05,137.5
"2009-04-20 00:05:00",815376,3.104,159.7,4.709,0.462,10.88,105.0695,12.25,13.29,32.14,0,110.5,13.23,13.05,121.7
"2009-04-20 00:05:30",815377,4.442,162.2,10.12,1.423,13.06,105.0713,12.25,13.43,32.18,0,110.5,13.23,13.05,124.2
"2009-04-20 00:06:00",815378,4.182,152.1,8.08,1.038,11.6,105.0746,12.26,13.48,32.22,0,110.5,13.23,13.06,114.1
"2009-04-20 00:06:30",815379,4.772,169.7,7.616,1.328,13.21,105.0805,12.28,13.56,32.27,0,110.5,13.23,13.07,131.7
"2009-04-20 00:07:00",815380,5.519,156,6.676,1.492,12.18,105.0854,12.29,13.49,32.7,0,110.5,13.23,13.09,118.0
"2009-04-20 00:07:30",815381,4.263,158.6,5.939,0.264,9.35,105.0872,12.3,13.28,33.03,0,110.5,13.27,13.09,120.6
"2009-04-20 00:08:00",815382,3.495,157.1,6.311,0.156,9.34,105.087,12.3,13.28,32.97,0,110.5,13.27,13.09,119.1
"2009-04-20 00:08:30",815383,4.263,161.8,7.598,0.337,9.52,105.0883,12.3,13.28,32.88,0,110.5,13.27,13.09,123.8
"2009-04-20 00:09:00",815384,4.974,154.5,3.088,0.422,9.84,105.0771,12.27,13.28,32.74,0,110.5,13.27,13.06,116.5
"2009-04-20 00:09:30",815385,4.479,156.4,3.347,0.354,10.52,105.0709,12.25,13.38,33.09,0,110.5,13.27,13.05,118.4
"2009-04-20 00:10:00",815386,5.419,155.5,6.03,1.287,12.07,105.0676,12.25,13.36,32.86,0,110.5,13.23,13.04,117.5
"2009-04-20 00:10:30",815387,4.734,152.1,7.78,1.378,12.2,105.0673,12.24,13.46,32.91,0,110.5,13.23,13.04,114.1
"2009-04-20 00:11:00",815388,6.039,159.9,7.442,1.256,14.03,105.0676,12.25,13.54,32.82,0,110.5,13.23,13.04,121.9
"2009-04-20 00:11:30",815389,5.446,161.5,7.315,1.219,12.3,105.0676,12.25,13.47,32.83,0,110.5,13.23,13.04,123.5
"2009-04-20 00:12:00",815390,4.153,155.5,2.439,0.255,9.88,105.0676,12.25,13.25,32.62,0,110.5,13.27,13.04,117.5
"2009-04-20 00:12:30",815391,4.894,155.8,6.286,1.03,10.05,105.0664,12.24,13.26,33.01,0,110.5,13.23,13.04,117.8
"2009-04-20 00:13:00",815392,5.01,161.4,6.06,1.04,11.13,105.0549,12.21,13.42,34.06,0,110.5,13.23,13.01,123.4
"2009-04-20 00:13:30",815393,3.974,156,5.432,1.278,10.63,105.0388,12.17,13.23,32.79,0,110.5,13.23,12.97,118.0
"2009-04-20 00:14:00",815394,3.302,153.7,2.628,0.153,9.69,105.0338,12.16,13.22,32.41,0,110.5,13.27,12.95,115.7
"2009-04-20 00:14:30",815395,3.434,161.7,3.591,0.143,10,105.0338,12.16,13.22,32.24,0,110.5,13.27,12.95,123.7
"2009-04-20 00:15:00",815396,3.058,161.6,2.86,0.121,10.25,105.0338,12.16,13.28,32.17,0,110.5,13.27,12.95,123.6
"2009-04-20 00:15:30",815397,4.572,162.7,8.16,1.289,12.61,105.0338,12.16,13.31,32.17,0,110.5,13.23,12.95,124.7
"2009-04-20 00:16:00",815398,5.629,175.3,7.475,1.264,13.77,105.029,12.15,13.45,32.39,0,110.5,13.23,12.94,137.3
"2009-04-20 00:16:30",815399,4.251,169.7,6.668,1.068,10.91,105.0211,12.13,13.17,32.15,0,110.5,13.23,12.92,131.7
"2009-04-20 00:17:00",815400,4.834,177.1,7.795,1.373,12.61,105.0025,12.08,13.35,32.24,0,110.5,13.23,12.87,139.1
"2009-04-20 00:17:30",815401,4.087,171.6,2.622,0.654,10.58,105,12.07,13.28,32.03,0,110.5,13.23,12.87,133.6
"2009-04-20 00:18:00",815402,4.125,170,6.417,0.949,10.91,105,12.07,13.23,31.88,0,110.5,13.23,12.87,132.0
"2009-04-20 00:18:30",815403,3.716,163,1.125,0.083,9.64,105,12.07,13.15,31.84,0,110.5,13.27,12.87,125.0
"2009-04-20 00:19:00",815404,3.639,161.6,3.25,0.075,9.65,105,12.07,13.14,31.85,0,110.5,13.27,12.87,123.6
"2009-04-20 00:19:30",815405,3.745,162.8,3.573,0.167,10.02,104.9994,12.07,13.14,31.75,0,110.5,13.27,12.87,124.8
"2009-04-20 00:20:00",815406,4.377,160,4.966,0.997,10.6,104.9932,12.06,13.13,31.8,0,110.5,13.23,12.85,122.0
"2009-04-20 00:20:30",815407,6.126,167.7,6.507,1.326,13.63,104.9904,12.05,13.34,32.54,0,110.5,13.23,12.84,129.7
"2009-04-20 00:21:00",815408,6.155,166.3,7.384,1.148,13.78,104.9879,12.04,13.33,34.18,0,110.5,13.23,12.84,128.3
"2009-04-20 00:21:30",815409,4.854,157.6,7.081,1.132,11.18,104.9834,12.03,13.25,34.72,0,110.5,13.24,12.82,119.6
"2009-04-20 00:22:00",815410,4.104,152.6,3.507,0.214,9.59,104.9778,12.02,13.09,34.72,0,110.5,13.27,12.81,114.6
"2009-04-20 00:22:30",815411,4.07,152.2,3.896,0.692,9.67,104.9685,11.99,13.08,33.55,0,110.5,13.24,12.79,114.2
"2009-04-20 00:23:00",815412,5.008,162.4,6.739,1.351,12.3,104.9668,11.99,13.27,32.47,0,110.5,13.24,12.78,124.4
"2009-04-20 00:23:30",815413,3.643,151,0.765,0.049,9.91,104.9671,11.99,13.07,32.07,0,110.5,13.27,12.78,113.0
"2009-04-20 00:24:00",815414,3.822,151.2,0.966,0.078,9.47,104.9668,11.99,13.07,32.12,0,110.5,13.28,12.78,113.2
"2009-04-20 00:24:30",815415,3.739,155.2,3.365,0.079,9.63,104.9698,11.99,13.07,32,0,110.5,13.28,12.79,117.2
"2009-04-20 00:25:00",815416,4.242,161.7,3,0.258,10.1,104.9701,12,13.06,32.27,0,110.5,13.28,12.79,123.7
"2009-04-20 00:25:30",815417,5.547,159.4,6.842,1.429,12.4,104.9733,12,13.2,32.93,0,110.5,13.24,12.80,121.4
"2009-04-20 00:26:00",815418,6.317,167.3,5.777,1.264,13.88,104.9746,12.01,13.26,32.94,0,110.4,13.24,12.80,129.3
"2009-04-20 00:26:30",815419,6.107,162,7.42,1.33,12.58,104.9688,11.99,13.29,33.08,0,110.5,13.24,12.79,124.0
"2009-04-20 00:27:00",815420,4.398,158.8,3.667,0.547,10.25,104.9561,11.96,13.08,32.96,0,110.4,13.28,12.75,120.8
"2009-04-20 00:27:30",815421,4.269,160.7,4.143,0.829,10.42,104.9519,11.95,13.14,32.2,0,110.4,13.24,12.74,122.7
"2009-04-20 00:28:00",815422,4.949,162.1,6.072,1.347,11.07,104.9543,11.96,13.02,31.84,0,110.4,13.24,12.75,124.1
"2009-04-20 00:28:30",815423,4.885,165.2,7.444,1.25,11.99,104.9578,11.96,13.17,31.88,0,110.4,13.24,12.76,127.2
"2009-04-20 00:29:00",815424,3.859,158.5,1.022,0.083,9.5,104.9526,11.95,12.98,31.41,0,110.4,13.28,12.74,120.5
"2009-04-20 00:29:30",815425,3.754,156,1.221,0.103,9.5,104.9451,11.93,12.99,31.58,0,110.4,13.28,12.73,118.0
"2009-04-20 00:30:00",815426,4.717,161.6,6.517,1.351,11.86,104.9322,11.9,13.1,31.82,0,110.4,13.25,12.69,123.6
"2009-04-20 00:30:30",815427,4.389,160.4,6.574,1.133,11.36,104.9335,11.9,13.1,31.69,0,110.4,13.25,12.70,122.4
"2009-04-20 00:31:00",815428,3.921,156.2,1.18,0.056,10.14,104.9332,11.9,12.93,31.8,0,110.4,13.28,12.70,118.2
"2009-04-20 00:31:30",815429,4.995,160.5,6.809,1.298,12.24,104.9338,11.9,13.08,31.75,0,110.4,13.24,12.70,122.5
"2009-04-20 00:32:00",815430,4.548,159.6,6.639,1.18,11.57,104.9338,11.9,13.02,31.57,0,110.4,13.24,12.70,121.6
"2009-04-20 00:32:30",815431,4.444,160.4,6.145,1.165,11.67,104.9341,11.9,13.08,31.71,0,110.4,13.24,12.70,122.4
"2009-04-20 00:33:00",815432,3.787,159.2,5.08,0.686,10.39,104.9338,11.9,13.03,31.59,0,110.4,13.24,12.70,121.2
"2009-04-20 00:33:30",815433,5.148,164.2,8.5,1.101,11.35,104.933,11.9,12.94,31.77,0,110.4,13.23,12.69,126.2
"2009-04-20 00:34:00",815434,4.856,162.3,7.431,1.281,11.79,104.9293,11.89,13.05,32.5,0,110.4,13.24,12.69,124.3
"2009-04-20 00:34:30",815435,5.042,161.8,7.093,1.476,11.61,104.922,11.87,13.04,32.32,0,110.4,13.24,12.67,123.8
"2009-04-20 00:35:00",815436,4.502,162.2,3.299,0.684,9.99,104.9158,11.86,13.02,33.24,0,110.4,13.24,12.65,124.2
"2009-04-20 00:35:30",815437,4.618,158.4,2.192,0.172,9.53,104.902,11.82,12.88,33.07,0,110.4,13.27,12.61,120.4
"2009-04-20 00:36:00",815438,5.075,168.4,7.715,1.116,11.27,104.9003,11.82,13,32.99,0,110.4,13.24,12.61,130.4
"2009-04-20 00:36:30",815439,4.736,163.8,6.996,1.036,10.76,104.9003,11.82,12.98,32.73,0,110.4,13.24,12.61,125.8
"2009-04-20 00:37:00",815440,5.29,166.1,6.846,1.352,11.72,104.9003,11.82,12.91,32.51,0,110.4,13.25,12.61,128.1
"2009-04-20 00:37:30",815441,4.5,163,4.065,0.83,10.29,104.891,11.79,12.83,32.24,0,110.4,13.25,12.59,125.0
"2009-04-20 00:38:00",815442,5.352,166.5,6.743,1.336,12.3,104.8705,11.74,13.03,32.34,0,110.4,13.25,12.53,128.5
"2009-04-20 00:38:30",815443,5.625,168.6,6.883,1.291,13.22,104.8665,11.73,13.05,32.26,0,110.4,13.25,12.52,130.6
"2009-04-20 00:39:00",815444,5.845,172.4,6.129,1.239,13.21,104.8665,11.73,13.01,31.97,0,110.4,13.25,12.52,134.4
"2009-04-20 00:39:30",815445,3.946,162.7,0.802,0.059,9.58,104.8623,11.72,12.78,31.54,0,110.4,13.25,12.51,124.7
"2009-04-20 00:40:00",815446,3.972,160.1,0.905,0.068,9.04,104.8428,11.67,12.78,31.5,0,110.4,13.28,12.46,122.1
"2009-04-20 00:40:30",815447,4.08,159.5,1.298,0.084,9.31,104.8327,11.64,12.76,31.52,0,110.4,13.28,12.44,121.5
"2009-04-20 00:41:00",815448,4.479,160.6,4.448,0.884,9.98,104.8327,11.64,12.73,31.53,0,110.4,13.25,12.44,122.6
"2009-04-20 00:41:30",815449,5.251,166.4,7.172,1.296,11.98,104.8324,11.64,12.88,31.64,0,110.4,13.25,12.44,128.4
"2009-04-20 00:42:00",815450,4.089,158.1,1.155,0.075,10.1,104.8268,11.63,12.72,31.54,0,110.4,13.29,12.42,120.1
"2009-04-20 00:42:30",815451,4.087,158.6,1.405,0.12,10.17,104.8133,11.59,12.69,31.74,0,110.4,13.29,12.39,120.6
"2009-04-20 00:43:00",815452,5.337,166.1,7.76,1.311,12.74,104.8043,11.57,12.88,31.95,0,110.4,13.25,12.36,128.1
"2009-04-20 00:43:30",815453,6.753,170.9,5.058,0.359,15.36,104.7989,11.56,12.98,31.89,0,110.4,13.25,12.35,132.9
"2009-04-20 00:44:00",815454,5.577,166.2,6.944,1.339,12.35,104.7995,11.56,12.83,31.74,0,110.4,13.25,12.35,128.2
"2009-04-20 00:44:30",815455,4.05,157.5,0.895,0.061,9.67,104.8001,11.56,12.64,31.6,0,110.4,13.29,12.35,119.5
"2009-04-20 00:45:00",815456,3.993,156.6,0.908,0.073,9.2,104.8007,11.56,12.64,31.57,0,110.4,13.29,12.35,118.6
"2009-04-20 00:45:30",815457,4.068,158.3,1.06,0.077,9.37,104.8004,11.56,12.62,31.75,0,110.4,13.29,12.35,120.3
"2009-04-20 00:46:00",815458,5.126,163.3,6.457,1.327,11.68,104.7982,11.56,12.77,31.75,0,110.4,13.25,12.35,125.3
"2009-04-20 00:46:30",815459,4.493,162.3,6.708,1.005,11.07,104.7902,11.54,12.76,31.82,0,110.4,13.26,12.33,124.3
"2009-04-20 00:47:00",815460,4.112,158.7,1.497,0.1,9.96,104.7775,11.5,12.6,31.54,0,110.4,13.29,12.30,120.7
"2009-04-20 00:47:30",815461,5.165,164.4,7.023,1.301,12.25,104.7731,11.49,12.75,31.65,0,110.4,13.26,12.28,126.4
"2009-04-20 00:48:00",815462,5.236,166.1,6.336,1.318,12.36,104.7746,11.5,12.65,31.56,0,110.4,13.26,12.29,128.1
"2009-04-20 00:48:30",815463,5.425,168.7,7.162,1.341,13.06,104.7772,11.5,12.82,31.83,0,110.4,13.25,12.29,130.7
"2009-04-20 00:49:00",815464,5.174,167.4,6.51,1.354,12.28,104.7778,11.5,12.65,31.41,0,110.4,13.25,12.30,129.4
"2009-04-20 00:49:30",815465,4.105,164.1,1.937,0.081,9.82,104.7802,11.51,12.57,31.31,0,110.4,13.29,12.30,126.1
"2009-04-20 00:50:00",815466,4.271,168.7,1.518,0.081,9.91,104.7814,11.51,12.65,31.3,0,110.4,13.29,12.31,130.7
"2009-04-20 00:50:30",815467,5.362,173.5,5.976,1.292,11.79,104.7818,11.51,12.61,31.22,0,110.4,13.25,12.31,135.5
"2009-04-20 00:51:00",815468,4.911,171.9,5.895,1.073,11.31,104.7753,11.5,12.7,31.25,0,110.4,13.25,12.29,133.9
"2009-04-20 00:51:30",815469,5.273,171.2,5.753,1.075,11.13,104.7658,11.47,12.58,31.17,0,110.4,13.25,12.27,133.2
"2009-04-20 00:52:00",815470,5.609,171.8,6.392,1.343,12.3,104.7664,11.47,12.61,31.32,0,110.4,13.25,12.27,133.8
"2009-04-20 00:52:30",815471,4.352,167.2,1.364,0.094,10.32,104.7614,11.46,12.51,31.2,0,110.4,13.29,12.25,129.2
"2009-04-20 00:53:00",815472,6.187,174,6.415,1.351,13.38,104.7425,11.41,12.7,31.44,0,110.4,13.25,12.21,136.0
"2009-04-20 00:53:30",815473,5.911,170.1,6.788,1.271,13.52,104.7329,11.39,12.74,31.54,0,110.4,13.26,12.18,132.1
"2009-04-20 00:54:00",815474,4.719,164.1,3.465,0.947,10.14,104.7329,11.39,12.45,31.34,0,110.4,13.26,12.18,126.1
"2009-04-20 00:54:30",815475,4.758,164.9,2.722,0.72,9.93,104.7242,11.37,12.52,31.47,0,110.4,13.26,12.16,126.9
"2009-04-20 00:55:00",815476,6.036,171.8,7.659,1.391,12.16,104.7031,11.31,12.47,31.43,0,110.4,13.26,12.10,133.8
"2009-04-20 00:55:30",815477,4.921,166.3,4.909,0.851,10.29,104.6991,11.3,12.54,31.47,0,110.4,13.26,12.09,128.3
"2009-04-20 00:56:00",815478,5.664,168.9,7.871,1.334,11.12,104.6986,11.3,12.41,31.22,0,110.4,13.26,12.09,130.9
"2009-04-20 00:56:30",815479,4.775,164,0.874,0.095,9.8,104.6904,11.28,12.37,31.14,0,110.4,13.3,12.07,126.0
"2009-04-20 00:57:00",815480,4.752,164.7,2.591,0.082,10.08,104.6684,11.22,12.34,31.14,0,110.4,13.3,12.02,126.7
"2009-04-20 00:57:30",815481,6.188,178.7,8.08,1.399,13.09,104.6653,11.22,12.5,31,0,110.4,13.26,12.01,140.7
"2009-04-20 00:58:00",815482,6.701,182.8,6.793,1.256,13.66,104.6653,11.22,12.55,30.89,0,110.4,13.26,12.01,144.8
"2009-04-20 00:58:30",815483,5.904,180.3,6.622,1.214,12.4,104.6645,11.21,12.4,30.78,0,110.4,13.26,12.01,142.3
"2009-04-20 00:59:00",815484,5.476,178,5.327,1.096,10.77,104.6585,11.2,12.43,30.82,0,110.4,13.26,11.99,140.0
"2009-04-20 00:59:30",815485,6.671,184.5,6.731,1.239,12.48,104.647,11.17,12.4,30.87,0,110.4,13.26,11.96,146.5
"2009-04-20 01:00:00",815486,5.02,176.8,0.785,0.102,9.5,104.6321,11.13,12.32,30.92,0,110.4,13.3,11.92,138.8
"2009-04-20 01:00:30",815487,5.241,175.5,0.53,0.061,9.59,104.6315,11.13,12.24,30.79,0,110.4,13.3,11.92,137.5
"2009-04-20 01:01:00",815488,5.206,175.5,0.657,0.05,9.96,104.6318,11.13,12.22,30.73,0,110.4,13.3,11.92,137.5
"2009-04-20 01:01:30",815489,5.209,174.9,0.472,0.04,10.35,104.6315,11.13,12.22,30.78,0,110.3,13.3,11.92,136.9
"2009-04-20 01:02:00",815490,6.485,182.4,6.621,1.28,13.34,104.6282,11.12,12.43,31.09,0,110.4,13.27,11.91,144.4
"2009-04-20 01:02:30",815491,6.696,183.1,6.064,1.2,14.81,104.6175,11.09,12.51,31.27,0,110.3,13.27,11.88,145.1
"2009-04-20 01:03:00",815492,6.168,177.6,7.096,1.315,13.23,104.6024,11.05,12.38,31.17,0,110.3,13.27,11.85,139.6
"2009-04-20 01:03:30",815493,6.061,179.7,5.995,1.349,12.47,104.6048,11.06,12.28,31.14,0,110.3,13.27,11.85,141.7
"2009-04-20 01:04:00",815494,4.787,174.5,0.89,0.101,9.57,104.6071,11.07,12.23,31.21,0,110.3,13.31,11.86,136.5
"2009-04-20 01:04:30",815495,4.889,173,0.638,0.051,9.52,104.6066,11.07,12.13,31.24,0,110.3,13.31,11.86,135.0
"2009-04-20 01:05:00",815496,4.856,172.4,0.715,0.046,9.96,104.5962,11.04,12.12,31.46,0,110.3,13.3,11.83,134.4
"2009-04-20 01:05:30",815497,5.081,173.5,1.19,0.158,10.38,104.585,11.01,12.11,31.72,0,110.3,13.3,11.80,135.5
"2009-04-20 01:06:00",815498,6.55,178.8,6.494,1.299,12.59,104.5889,11.02,12.12,32.05,0,110.3,13.27,11.81,140.8
"2009-04-20 01:06:30",815499,7.893,186.8,3.709,0.931,15.56,104.5916,11.03,12.4,32.15,0,110.3,13.27,11.82,148.8
"2009-04-20 01:07:00",815500,7.998,188.6,3.476,0.723,15.28,104.5796,11,12.39,31.86,0,110.3,13.27,11.79,150.6
"2009-04-20 01:07:30",815501,6.137,180.1,5.67,1.162,11.04,104.566,10.96,12.26,31.79,0,110.3,13.27,11.75,142.1
"2009-04-20 01:08:00",815502,5.377,178.2,1.221,0.099,8.99,104.5654,10.96,12.02,31.61,0,110.3,13.3,11.75,140.2
"2009-04-20 01:08:30",815503,5.168,178.1,1.476,0.084,8.95,104.5652,10.96,12.02,31.65,0,110.3,13.3,11.75,140.1
"2009-04-20 01:09:00",815504,5.235,177.5,1.468,0.1,9.34,104.5601,10.95,11.99,31.81,0,110.3,13.3,11.74,139.5
"2009-04-20 01:09:30",815505,5.277,176.5,0.98,0.07,9.89,104.5522,10.93,11.98,32,0,110.3,13.31,11.72,138.5
"2009-04-20 01:10:00",815506,5.188,178.5,0.878,0.092,10.42,104.542,10.9,11.96,32.07,0,110.3,13.31,11.69,140.5
"2009-04-20 01:10:30",815507,6.59,186.9,7.149,1.278,13.59,104.5341,10.88,12.13,32.26,0,110.4,13.28,11.67,148.9
"2009-04-20 01:11:00",815508,7.627,192.5,4.903,0.608,15.42,104.5319,10.87,12.28,32.46,0,110.3,13.28,11.66,154.5
"2009-04-20 01:11:30",815509,6.627,188.6,6.447,1.342,13.24,104.5316,10.87,12.18,32.44,0,110.3,13.28,11.66,150.6
"2009-04-20 01:12:00",815510,5.685,181.8,5.458,0.943,10.81,104.5316,10.87,12.09,32.31,0,110.3,13.28,11.66,143.8
"2009-04-20 01:12:30",815511,5.423,178.6,0.827,0.097,9.23,104.5316,10.87,11.92,32.12,0,110.3,13.32,11.66,140.6
"2009-04-20 01:13:00",815512,5.299,176.5,1.862,0.13,9.24,104.5316,10.87,11.91,32.15,0,110.3,13.32,11.66,138.5
"2009-04-20 01:13:30",815513,5.495,177.1,1.097,0.08,9.71,104.5316,10.87,11.9,32.22,0,110.3,13.32,11.66,139.1
"2009-04-20 01:14:00",815514,6.057,177.9,5.817,1.06,10.87,104.5308,10.87,11.89,32.31,0,110.3,13.29,11.66,139.9
"2009-04-20 01:14:30",815515,6.896,184.2,6.894,1.344,13.13,104.524,10.85,12.16,32.53,0,110.3,13.29,11.64,146.2
"2009-04-20 01:15:00",815516,7.734,185.6,6.812,1.222,13.87,104.517,10.84,12.13,32.44,0,110.3,13.29,11.63,147.6
"2009-04-20 01:15:30",815517,7.894,190.2,6.343,1.122,13.23,104.5046,10.8,12.06,32.44,0,110.3,13.29,11.59,152.2
"2009-04-20 01:16:00",815518,6.329,188.2,5.758,1.111,11.34,104.4987,10.79,12.03,32.51,0,110.3,13.29,11.58,150.2
"2009-04-20 01:16:30",815519,6.529,188,6.076,1.172,10.76,104.4996,10.79,11.87,32.32,0,110.3,13.29,11.58,150.0
"2009-04-20 01:17:00",815520,5.719,185.2,1.483,0.13,9.6,104.501,10.8,11.84,32.27,0,110.3,13.32,11.59,147.2
"2009-04-20 01:17:30",815521,5.699,186.8,0.61,0.087,9.93,104.504,10.8,11.85,32.17,0,110.3,13.32,11.59,148.8
"2009-04-20 01:18:00",815522,6.841,191.5,6.721,1.258,12.37,104.5066,10.81,11.98,32.22,0,110.3,13.29,11.60,153.5
"2009-04-20 01:18:30",815523,7.231,190.8,7.252,1.336,13.3,104.509,10.82,12.09,32.27,0,110.3,13.29,11.61,152.8
"2009-04-20 01:19:00",815524,7.797,194.2,6.514,1.087,14.04,104.5119,10.82,12.11,32.32,0,110.3,13.29,11.61,156.2
"2009-04-20 01:19:30",815525,6.258,189.1,4.728,1.039,11.09,104.5119,10.82,11.94,32.15,0,110.3,13.29,11.61,151.1
"2009-04-20 01:20:00",815526,7.076,195.7,6.022,1.366,12.54,104.5152,10.83,11.96,32.18,0,110.3,13.29,11.62,157.7
"2009-04-20 01:20:30",815527,5.945,194.4,5.353,0.88,11.12,104.5208,10.85,12.02,32.46,0,110.3,13.29,11.64,156.4
"2009-04-20 01:21:00",815528,5.319,194.2,1.062,0.087,10.06,104.5273,10.86,11.85,32.37,0,110.3,13.33,11.65,156.2
"2009-04-20 01:21:30",815529,5.934,196.9,5.387,1.124,11.13,104.5281,10.86,11.88,32.44,0,110.3,13.29,11.65,158.9
"2009-04-20 01:22:00",815530,6.675,201.7,6.725,1.313,12.91,104.5299,10.87,11.96,32.54,0,110.3,13.29,11.66,163.7
"2009-04-20 01:22:30",815531,6.617,202.6,6.892,1.324,13.5,104.5317,10.87,11.96,32.53,0,110.3,13.29,11.66,164.6
"2009-04-20 01:23:00",815532,6.286,204.6,6.746,1.342,13.17,104.5326,10.88,12.06,32.64,0,110.3,13.29,11.67,166.6
"2009-04-20 01:23:30",815533,6.048,201.8,6.508,1.255,12.67,104.5329,10.88,11.98,32.54,0,110.3,13.28,11.67,163.8
"2009-04-20 01:24:00",815534,6.398,202,7.197,1.328,12.79,104.5331,10.88,12.02,32.56,0,110.3,13.29,11.67,164.0
"2009-04-20 01:24:30",815535,5.622,198.1,5.206,1.086,11.88,104.5331,10.88,12.02,32.58,0,110.3,13.29,11.67,160.1
"2009-04-20 01:25:00",815536,6.267,200.1,6.558,1.29,12.67,104.5331,10.88,11.9,32.41,0,110.3,13.29,11.67,162.1
"2009-04-20 01:25:30",815537,5.362,197.8,5.643,0.962,11.57,104.5331,10.88,11.98,32.51,0,110.3,13.29,11.67,159.8
"2009-04-20 01:26:00",815538,5.862,199.1,6.651,1.258,11.84,104.5331,10.88,11.84,32.38,0,110.3,13.29,11.67,161.1
"2009-04-20 01:26:30",815539,5.912,199.6,6.583,1.286,12.54,104.5331,10.88,12,32.51,0,110.3,13.29,11.67,161.6
"2009-04-20 01:27:00",815540,5.45,197.3,4.735,1.088,11.31,104.5331,10.88,11.85,32.38,0,110.3,13.29,11.67,159.3
"2009-04-20 01:27:30",815541,6.024,202.2,6.803,1.308,12.78,104.5331,10.88,12.04,32.58,0,110.3,13.29,11.67,164.2
"2009-04-20 01:28:00",815542,4.814,196.2,0.672,0.071,10.65,104.5331,10.88,11.86,32.38,0,110.3,13.33,11.67,158.2
"2009-04-20 01:28:30",815543,6.153,203,6.631,1.364,13.29,104.5331,10.88,12.03,32.56,0,110.3,13.3,11.67,165.0
"2009-04-20 01:29:00",815544,5.576,203.1,6.526,1.303,12.71,104.5331,10.88,12.06,32.64,0,110.3,13.3,11.67,165.1
"2009-04-20 01:29:30",815545,5.661,203.1,6.474,1.262,12.54,104.5331,10.88,11.99,32.52,0,110.3,13.3,11.67,165.1
"2009-04-20 01:30:00",815546,4.779,198.5,3.034,0.585,10.48,104.5331,10.88,11.87,32.38,0,110.2,13.3,11.67,160.5
"2009-04-20 01:30:30",815547,5.749,200,6.493,1.276,12.67,104.5331,10.88,12,32.53,0,110.2,13.3,11.67,162.0
"2009-04-20 01:31:00",815548,5.377,198.2,6.027,1.169,12.26,104.5331,10.88,11.96,32.46,0,110.3,13.3,11.67,160.2
"2009-04-20 01:31:30",815549,5.321,193.9,5.586,0.953,11.27,104.5332,10.88,11.92,32.43,0,110.2,13.3,11.67,155.9
"2009-04-20 01:32:00",815550,5.594,193.8,6.211,1.149,12.11,104.5326,10.88,11.98,32.44,0,110.2,13.31,11.67,155.8
"2009-04-20 01:32:30",815551,6.645,198.9,7.218,1.282,13.79,104.5304,10.87,12.05,32.46,0,110.2,13.31,11.66,160.9
"2009-04-20 01:33:00",815552,6.723,199.7,7.167,1.24,13.93,104.5329,10.88,12.07,32.45,0,110.2,13.31,11.67,161.7
"2009-04-20 01:33:30",815553,5.951,194.5,5.95,1.191,12.32,104.5304,10.87,11.96,32.28,0,110.2,13.31,11.66,156.5
"2009-04-20 01:34:00",815554,6.343,197.6,6.776,1.321,12.35,104.5259,10.86,11.97,32.29,0,110.2,13.31,11.65,159.6
"2009-04-20 01:34:30",815555,6.363,197.5,6.777,1.305,12.4,104.5247,10.86,12,32.35,0,110.2,13.31,11.65,159.5
"2009-04-20 01:35:00",815556,6.365,196.7,6.009,1.303,12.1,104.5236,10.85,11.91,32.23,0,110.2,13.31,11.64,158.7
"2009-04-20 01:35:30",815557,6.097,197,6.334,1.162,12.08,104.5198,10.84,12.03,32.41,0,110.2,13.31,11.63,159.0
"2009-04-20 01:36:00",815558,6.252,196.7,5.654,1.232,11.46,104.5182,10.84,11.86,32.27,0,110.2,13.31,11.63,158.7
"2009-04-20 01:36:30",815559,7.227,204.1,6.865,1.232,13.7,104.5191,10.84,12.06,32.45,0,110.2,13.31,11.63,166.1
"2009-04-20 01:37:00",815560,7.401,204.9,6.298,1.186,13.88,104.5188,10.84,12.04,32.38,0,110.2,13.31,11.63,166.9
"2009-04-20 01:37:30",815561,6.304,203,6.247,1.313,11.67,104.5191,10.84,11.87,32.23,0,110.2,13.31,11.63,165.0
"2009-04-20 01:38:00",815562,6.309,201.3,6.645,1.257,11.95,104.5185,10.84,11.99,32.37,0,110.2,13.31,11.63,163.3
"2009-04-20 01:38:30",815563,5.571,200.8,3.136,0.679,10.38,104.5161,10.83,11.84,32.19,0,110.2,13.31,11.62,162.8
"2009-04-20 01:39:00",815564,6.288,204.2,5.705,1.207,11.47,104.506,10.81,11.84,32.25,0,110.2,13.31,11.60,166.2
"2009-04-20 01:39:30",815565,6.859,207.1,7.589,1.385,13.39,104.4996,10.79,12.07,32.57,0,110.2,13.31,11.58,169.1
"2009-04-20 01:40:00",815566,6.044,204.7,5.49,0.932,11.85,104.5005,10.79,11.95,32.48,0,110.2,13.31,11.58,166.7
"2009-04-20 01:40:30",815567,7.649,209.6,6.77,1.267,13.66,104.5008,10.8,11.95,32.51,0,110.2,13.31,11.58,171.6
"2009-04-20 01:41:00",815568,6.16,205.1,4.892,0.97,11.68,104.5008,10.8,11.91,32.53,0,110.2,13.31,11.58,167.1
"2009-04-20 01:41:30",815569,6.996,207.8,6.187,1.325,12.72,104.5008,10.8,11.86,32.52,0,110.2,13.31,11.58,169.8
"2009-04-20 01:42:00",815570,6.346,204.9,6.329,1.099,11.92,104.4938,10.78,11.93,32.55,0,110.2,13.31,11.57,166.9
"2009-04-20 01:42:30",815571,6.028,202.5,3.888,0.684,11.21,104.4907,10.77,11.86,32.49,0,110.2,13.31,11.56,164.5
"2009-04-20 01:43:00",815572,7.819,211.3,5.943,1.212,14.33,104.4836,10.75,11.94,32.56,0,110.2,13.31,11.54,173.3
"2009-04-20 01:43:30",815573,7.019,207.4,6.389,1.335,12.98,104.4729,10.72,11.86,32.43,0,110.2,13.31,11.51,169.4
"2009-04-20 01:44:00",815574,5.692,201.4,1.086,0.176,10.61,104.4676,10.71,11.77,32.37,0,110.2,13.35,11.50,163.4
"2009-04-20 01:44:30",815575,6.838,208.1,6.473,1.223,12.88,104.467,10.71,11.94,32.54,0,110.2,13.32,11.50,170.1
"2009-04-20 01:45:00",815576,7.037,208.9,6.294,1.321,13.32,104.467,10.71,11.98,32.6,0,110.2,13.32,11.50,170.9
"2009-04-20 01:45:30",815577,6.337,209.8,6.212,1.336,12.64,104.467,10.71,11.82,32.41,0,110.2,13.32,11.50,171.8
"2009-04-20 01:46:00",815578,5.253,206.9,2.852,0.326,10.61,104.467,10.71,11.73,32.27,0,110.2,13.36,11.50,168.9
"2009-04-20 01:46:30",815579,5.938,215.1,6.904,1.259,12.35,104.467,10.71,11.9,32.38,0,110.2,13.33,11.50,177.1
"2009-04-20 01:47:00",815580,6.936,220.8,6.526,1.218,14.28,104.467,10.71,11.96,32.47,0,110.2,13.33,11.50,182.8
"2009-04-20 01:47:30",815581,5.253,218.4,4.93,1.166,12.32,104.4688,10.71,11.78,32.25,0,110.2,13.33,11.50,180.4
"2009-04-20 01:48:00",815582,4.034,217.3,4.465,0.186,10.85,104.4672,10.71,11.73,32.07,0,110.2,13.36,11.50,179.3